Theta_e
281 282 282 279 279 279 279 279 278 277 278 278 276 276 279 279 275 273 278 279 277 279 281 281 279 279 281 282 283 281 280 280 280 279 279 280 280 280 280 282 283 283 284 284 284 283 283 282 282 282 282 282 281 281 282 282 282 283 283 283 284 284 284 285 285 285 284 284 284 285 285 286 287 287 288 289 290 290 291 292 293 293 293 293 292 292 292
280 280 281 279 279 278 278 278 279 279 278 278 278 278 279 279 278 280 280 280 279 281 282 283 283 281 281 280 279 279 280 280 279 279 279 280 280 280 281 282 283 284 284 284 284 283 282 282 283 282 282 282 282 283 283 282 282 283 282 283 284 284 285 285 285 284 284 283 284 284 285 286 287 287 287 288 288 290 291 291 291 291 292 292 292 291 291
278 280 281 280 279 279 277 278 279 279 279 279 279 279 279 279 278 279 279 278 278 283 284 283 282 284 283 281 280 280 280 280 280 280 280 280 281 281 282 283 284 285 285 284 282 282 283 283 283 283 283 283 282 282 283 283 283 283 283 283 284 284 285 285 284 283 283 284 284 284 285 285 285 285 286 286 287 289 290 290 291 291 291 291 291 291 292
275 279 279 279 280 279 278 278 277 278 278 276 278 277 279 278 276 278 278 276 277 283 284 285 280 281 282 283 283 282 283 282 282 282 281 281 282 282 283 284 284 284 284 283 283 283 284 283 283 283 283 282 281 282 282 282 283 282 283 284 284 284 285 284 283 283 283 283 284 284 284 285 285 285 285 285 287 288 289 289 289 290 290 291 291 290 291
275 279 279 278 278 277 275 275 278 278 279 280 280 280 281 281 281 277 275 276 282 280 281 281 279 281 282 282 282 283 285 285 284 283 283 283 283 283 284 284 285 285 285 284 284 284 284 284 283 283 284 282 282 283 282 283 282 282 283 284 284 284 283 283 283 282 282 283 283 283 283 284 284 284 285 286 287 288 288 289 288 289 290 290 290 290 290
274 278 278 278 275 269 269 283 285 282 279 279 277 278 279 281 282 280 282 283 285 281 280 279 280 279 280 283 284 286 287 287 285 283 283 283 284 284 285 286 287 287 286 284 284 284 284 284 285 285 283 284 284 283 283 282 282 283 284 283 284 284 283 283 283 282 282 282 283 283 282 283 283 283 284 286 287 288 288 288 289 289 289 289 289 289 289
274 276 276 273 267 269 284 286 285 285 284 282 280 281 281 281 282 282 282 283 283 280 280 280 282 282 283 283 284 286 287 287 286 285 283 283 284 285 286 286 286 286 285 284 284 283 283 284 284 283 282 283 282 282 282 282 282 283 283 284 283 283 283 283 282 282 282 282 283 283 282 282 282 283 284 284 285 286 287 288 288 289 288 288 288 288 288
277 275 273 267 267 282 285 284 285 286 285 284 282 279 281 282 282 282 281 283 284 284 283 282 281 280 281 282 284 285 286 287 286 284 285 286 286 286 287 287 287 286 284 284 285 285 286 285 284 283 284 282 282 282 282 283 282 283 284 283 284 283 283 283 283 283 283 283 282 282 282 282 283 284 285 285 285 285 287 288 288 288 288 288 288 287 287
272 274 274 273 280 278 279 280 280 282 280 280 279 275 279 283 283 282 282 283 283 284 284 285 284 281 281 282 285 288 288 287 287 288 289 290 289 289 288 288 288 288 287 286 286 286 286 285 284 283 283 282 283 282 282 282 282 283 283 283 283 283 283 283 283 283 283 283 283 283 282 283 284 285 285 286 286 286 286 287 287 287 288 288 288 288 288
278 274 272 273 273 270 275 279 279 285 285 285 284 281 279 284 284 285 283 282 283 283 283 283 282 281 280 280 283 287 286 288 288 289 291 291 288 287 288 289 289 289 288 287 286 286 285 284 285 285 283 283 283 282 282 282 282 282 283 284 283 283 283 283 283 283 283 283 284 284 284 284 285 285 286 286 287 287 287 287 287 287 288 288 288 288 288
277 273 271 270 270 273 282 280 281 282 284 283 282 278 275 281 280 284 284 283 284 284 283 283 281 280 278 280 285 283 286 287 288 289 288 287 288 288 288 288 288 288 288 287 286 285 285 284 284 284 283 283 283 283 282 282 283 283 283 284 283 283 283 283 283 283 283 283 284 284 285 285 286 286 286 287 287 287 287 288 288 287 287 288 288 288 288
275 274 272 270 274 274 281 282 282 282 282 282 280 271 271 284 281 283 283 283 284 284 284 284 282 280 278 281 285 283 286 287 287 286 286 285 286 286 287 287 287 287 285 283 282 283 283 285 284 283 282 283 283 283 283 283 283 284 284 284 284 284 283 283 283 282 282 283 283 284 285 286 286 287 287 287 287 287 287 288 287 287 287 287 287 287 287
275 275 273 276 276 279 282 282 283 281 283 282 274 268 280 285 284 284 284 284 284 284 283 283 281 283 286 287 289 286 282 282 283 283 284 285 286 286 286 286 285 283 283 284 284 284 285 285 283 283 283 283 283 283 283 282 283 285 285 284 283 283 283 282 282 282 282 283 283 283 284 286 286 286 287 287 287 287 286 287 287 287 286 286 287 287 286
272 274 272 272 277 282 283 282 282 281 280 272 271 282 283 280 282 284 285 284 284 285 286 284 284 286 287 288 288 288 285 285 280 281 281 281 281 281 281 282 282 282 282 282 282 283 284 284 283 283 283 283 283 283 282 283 285 285 283 283 283 282 282 282 282 282 282 282 283 283 282 283 284 285 286 287 287 286 287 286 286 286 286 286 286 286 286
276 275 272 271 268 277 285 279 278 280 278 278 283 281 282 284 283 282 281 285 286 286 285 284 284 285 286 286 286 286 285 285 285 282 281 281 282 283 282 281 280 281 281 281 282 283 283 283 283 283 283 283 283 283 283 284 284 283 283 282 282 282 282 282 282 282 282 282 282 282 282 282 283 284 284 285 286 286 286 285 285 285 285 285 285 285 285
271 272 270 270 277 284 284 284 281 279 282 282 284 283 283 281 282 282 282 284 286 285 284 284 283 283 284 285 284 282 282 282 282 281 279 280 280 280 279 280 280 280 281 281 282 281 281 282 282 283 283 284 283 282 283 283 282 282 282 282 282 282 281 282 282 282 282 281 282 282 282 282 283 283 284 285 285 286 286 285 285 285 285 285 285 285 284
271 271 275 278 277 279 282 285 286 286 286 283 283 286 286 284 283 285 284 283 284 284 284 284 283 282 282 283 283 281 283 283 282 282 281 281 281 281 281 281 279 279 281 281 281 279 280 281 282 283 284 284 282 283 283 282 282 282 282 281 281 281 281 281 281 281 281 281 281 281 281 282 283 284 284 285 285 285 285 285 285 284 284 284 284 284 284
276 279 279 280 278 278 280 283 284 281 280 282 281 283 285 285 286 283 283 285 285 283 282 283 280 281 281 280 280 280 280 280 280 279 278 278 278 277 277 277 278 279 279 279 279 279 278 279 281 282 283 284 283 284 282 282 282 282 281 280 280 280 280 280 280 280 280 280 280 280 281 282 283 284 285 285 285 285 285 285 285 285 284 284 284 284 283
271 266 277 276 277 279 281 282 283 282 282 281 282 281 282 282 283 282 283 285 283 282 281 282 282 281 280 280 280 279 279 277 278 278 278 277 277 277 278 278 277 277 277 279 279 279 279 278 280 281 281 283 282 282 282 282 281 281 281 280 280 279 279 279 279 279 280 280 280 280 280 281 281 282 284 285 285 284 284 284 284 284 284 284 284 284 284
270 271 275 277 279 280 281 281 281 282 282 283 283 284 284 283 282 281 280 279 278 278 279 281 282 281 279 279 279 278 277 277 276 276 276 276 276 276 276 276 277 277 279 279 279 279 280 279 280 280 281 281 280 281 281 281 280 280 280 280 279 279 279 279 279 279 280 280 281 281 281 282 282 282 283 284 284 284 284 284 284 284 284 284 284 284 283
274 276 277 277 279 278 279 282 283 283 283 283 283 284 284 284 283 283 280 277 278 278 280 280 280 279 278 278 278 278 277 277 276 276 276 275 276 276 275 275 275 279 278 278 279 279 280 280 279 280 280 281 280 280 280 280 280 280 279 278 279 278 278 279 279 279 280 280 281 282 282 282 283 284 284 284 284 284 284 284 285 284 284 284 284 285 284
269 269 273 277 271 271 277 280 283 283 283 283 283 284 284 284 283 283 282 282 278 277 278 279 280 281 281 278 277 277 278 279 278 277 276 275 275 275 275 276 276 276 275 276 277 278 278 279 279 279 279 280 280 280 279 280 280 280 279 278 278 277 278 278 278 279 279 279 280 281 282 282 283 283 284 284 285 284 283 284 285 286 286 285 285 285 285
269 274 276 278 278 278 279 281 283 283 283 283 283 283 284 284 284 283 282 281 282 279 279 279 280 281 282 280 279 278 278 278 279 278 276 276 276 276 275 274 274 275 277 275 275 276 278 278 279 279 279 279 280 280 280 280 280 281 279 279 278 278 277 278 279 279 280 280 280 280 281 283 283 283 283 284 286 286 285 284 285 286 287 287 286 286 285
276 277 278 279 278 277 279 281 283 282 284 284 283 284 284 284 284 284 283 282 281 282 282 279 280 280 280 280 280 280 279 279 279 278 276 276 276 277 276 276 276 275 274 275 277 279 279 279 279 278 278 278 279 280 280 280 280 281 280 280 279 279 278 278 279 279 279 280 280 281 281 282 282 283 283 282 283 285 286 285 285 286 286 286 286 286 286
275 279 279 280 280 281 282 282 282 283 283 281 280 281 283 284 285 285 284 283 283 282 282 282 281 280 281 282 282 282 283 282 282 280 279 278 277 277 276 275 276 277 278 279 279 279 279 279 278 278 278 278 278 278 279 280 280 281 280 281 280 279 279 279 279 279 279 279 280 280 281 281 282 283 282 282 281 282 284 285 285 286 286 286 286 286 286
279 279 280 280 281 281 282 282 282 279 277 278 279 281 283 285 285 285 285 284 284 283 281 281 282 282 282 283 283 283 283 283 282 280 279 279 278 277 276 277 279 279 280 280 280 280 279 280 280 279 279 279 278 279 279 279 280 280 280 280 280 280 279 279 278 279 279 279 279 279 280 281 282 282 283 282 282 282 282 282 283 284 285 286 286 286 286
279 277 279 279 279 280 282 279 277 275 276 279 280 280 281 283 284 285 285 285 284 284 283 282 282 282 281 282 282 282 282 282 280 279 280 279 279 281 281 281 280 280 280 280 280 280 280 280 280 279 280 280 279 280 280 279 279 279 279 278 279 279 279 279 278 278 278 278 278 279 279 280 281 282 282 283 283 282 282 281 281 281 282 283 285 285 285
271 270 272 274 276 276 275 273 273 276 277 275 275 276 278 278 280 283 284 285 285 285 285 283 282 280 280 282 280 282 280 278 280 281 281 281 281 281 281 279 280 278 279 279 280 280 279 279 279 279 280 279 279 280 279 279 279 279 279 279 279 278 278 279 278 277 277 278 278 278 279 279 280 281 281 282 282 282 282 282 282 282 282 283 284 284 285
267 266 267 268 269 270 272 273 275 274 272 273 273 275 274 273 275 279 281 280 281 283 284 284 283 282 283 283 282 283 283 282 280 281 282 282 281 281 280 279 278 277 278 278 278 277 278 278 279 279 280 278 278 279 279 279 279 279 279 279 279 278 279 279 278 278 277 278 278 278 279 279 279 279 280 281 282 282 282 282 282 282 282 282 283 283 284
263 264 264 266 269 270 271 272 271 270 269 269 270 271 271 270 271 273 274 274 274 275 277 278 282 284 284 284 285 285 285 284 284 284 283 282 282 279 277 276 276 274 274 274 277 277 278 279 279 279 280 278 278 278 279 279 279 279 279 279 279 279 279 279 278 278 278 278 278 279 279 279 278 279 279 280 281 282 282 282 282 282 282 282 282 282 281
260 261 262 266 267 267 268 268 267 267 266 267 268 269 268 268 268 269 270 270 270 270 271 272 274 275 276 278 280 283 285 285 285 284 283 282 279 278 278 278 279 278 278 279 278 278 279 279 279 279 278 277 277 278 279 279 279 278 278 278 277 279 280 280 279 279 279 278 278 279 278 278 278 279 279 280 281 281 282 282 282 282 282 282 282 282 282
258 261 264 264 262 263 265 264 263 263 263 264 265 265 265 265 264 265 267 267 267 268 268 267 268 269 271 273 277 279 282 283 283 283 282 281 279 278 278 278 278 279 277 277 277 277 277 278 278 279 277 276 277 278 278 278 278 278 278 278 278 277 279 280 279 279 279 279 279 278 279 278 278 279 280 280 281 281 281 281 281 281 282 282 282 282 283
258 261 263 260 259 260 260 260 260 260 261 261 263 264 264 264 264 264 265 266 266 266 266 266 266 267 269 272 276 279 281 282 281 280 279 279 278 277 277 277 279 279 278 277 276 277 280 280 279 277 277 277 277 277 278 278 278 278 278 278 277 278 278 279 279 279 278 278 278 278 278 279 279 279 280 281 281 281 281 281 281 281 281 282 282 283 283
256 257 258 258 259 258 258 258 259 259 260 261 262 262 262 262 262 262 263 265 264 264 264 265 265 267 271 274 275 277 280 280 280 280 279 279 278 277 278 280 280 280 280 280 280 280 280 279 279 279 279 279 278 276 276 277 277 277 277 277 277 277 278 278 279 278 278 278 278 279 278 278 278 278 279 280 280 281 281 281 281 281 281 281 282 282 282
257 257 259 259 259 259 259 258 258 259 259 259 260 260 260 260 260 260 262 262 262 263 264 264 266 268 270 270 270 270 270 271 273 277 279 279 279 279 280 280 280 278 277 277 279 279 280 280 279 278 278 278 278 278 277 276 275 276 276 277 278 278 277 277 277 278 278 278 278 277 277 278 278 278 279 279 279 280 281 281 281 281 281 281 281 282 282
254 255 256 257 257 258 257 258 259 259 259 258 258 258 258 258 258 258 259 260 262 262 263 263 265 267 268 267 266 266 267 268 269 271 274 278 279 280 280 278 277 276 275 274 274 277 280 279 279 278 277 276 276 277 278 278 277 277 277 277 278 278 278 277 277 276 277 277 277 278 277 278 278 279 279 278 279 279 280 281 281 281 281 281 281 281 281
253 253 254 254 255 256 256 257 258 258 257 257 257 257 257 257 257 258 260 261 261 261 261 262 264 265 265 266 265 265 266 266 268 270 272 273 273 272 272 272 272 272 272 271 272 275 277 278 277 277 275 275 275 275 277 278 279 279 278 278 278 279 279 278 277 276 276 277 278 278 278 278 277 277 279 279 280 280 281 281 281 281 281 281 281 281 281
251 252 252 253 254 254 255 256 257 256 255 255 256 256 256 256 257 258 259 259 259 260 260 261 262 264 265 265 264 264 264 266 268 269 268 268 268 266 265 265 266 268 268 269 272 273 273 274 275 275 274 273 273 274 276 278 279 280 280 280 280 280 280 280 280 279 279 277 278 278 279 280 280 280 280 280 280 281 281 281 282 282 282 282 282 281 281
250 252 252 252 253 252 254 255 256 255 255 253 254 254 256 256 257 258 258 258 259 259 259 260 261 262 262 262 262 263 263 264 267 269 268 267 266 264 263 263 264 266 268 270 271 271 271 272 272 272 272 272 272 273 274 276 278 278 279 279 280 280 280 281 281 281 281 281 281 280 280 280 281 281 281 281 281 281 282 282 282 282 282 282 282 282 282
249 250 251 251 251 253 253 254 255 254 254 254 253 253 255 255 256 256 257 257 258 258 258 259 259 259 260 261 261 261 262 263 265 266 266 266 266 265 264 263 264 265 268 270 269 269 269 270 270 269 270 270 271 272 273 274 276 277 278 278 279 279 280 280 281 281 281 281 281 280 281 281 281 281 281 282 282 282 282 282 282 282 282 283 283 283 283
248 249 250 251 252 253 253 253 253 254 253 253 253 253 254 255 255 255 255 256 256 257 257 257 258 258 258 259 260 261 262 262 262 262 263 263 262 262 261 260 262 264 267 267 267 267 268 268 268 267 268 269 270 270 271 272 273 274 276 277 278 279 279 279 279 280 280 280 281 281 281 281 281 281 281 281 282 282 282 282 282 282 282 282 283 283 283
246 246 247 248 250 251 251 251 252 252 253 253 253 253 253 254 254 254 255 256 255 256 256 256 258 257 258 258 259 260 260 261 261 260 260 259 259 259 259 260 262 264 266 266 266 265 265 265 266 266 266 267 268 269 270 270 270 272 273 274 276 277 278 278 279 279 280 280 280 280 281 281 281 281 281 281 281 281 282 282 282 282 283 283 283 283 283
247 247 247 248 249 250 250 251 251 252 252 252 252 252 253 253 253 254 254 255 255 255 255 255 255 256 256 257 258 257 257 258 259 260 260 259 260 259 259 260 262 263 265 264 264 263 263 264 264 265 266 266 267 268 268 267 268 269 270 270 272 273 274 274 274 274 274 275 275 276 277 279 280 280 281 281 281 281 281 281 282 282 283 283 283 283 283
247 248 248 248 249 250 251 250 251 251 251 252 252 252 252 252 253 253 253 253 254 254 254 254 254 254 255 256 256 256 255 256 256 257 259 259 258 259 260 260 261 262 263 263 262 262 262 263 263 264 265 265 265 266 265 265 266 267 267 268 269 270 270 270 270 270 270 271 272 273 274 275 276 278 279 280 281 281 281 282 282 282 282 283 283 283 283
247 248 248 249 249 250 250 250 250 250 251 252 252 252 251 251 252 252 252 252 253 253 253 253 253 253 253 254 255 256 256 255 255 255 255 255 255 256 259 260 260 261 261 261 261 260 261 262 262 263 263 263 264 264 263 263 264 265 265 266 266 266 267 267 267 267 268 269 270 272 273 273 275 276 276 276 276 279 280 281 282 282 282 283 283 283 283
248 248 249 250 249 250 250 250 251 251 251 251 251 251 251 251 251 251 251 251 252 252 252 253 253 252 253 253 254 255 256 256 255 255 255 255 255 256 258 259 259 260 260 260 259 259 259 261 262 262 262 262 262 261 261 262 263 263 263 263 263 264 264 265 265 266 267 267 269 270 270 272 273 273 273 273 274 275 276 277 279 280 281 282 283 283 283
248 248 248 248 249 249 250 250 250 250 249 249 248 248 249 250 250 251 251 251 251 252 252 252 252 252 253 253 253 252 253 254 255 255 254 255 256 256 257 258 259 259 258 257 257 258 258 259 260 261 261 261 261 260 261 261 261 261 261 261 262 262 263 263 264 265 265 266 268 269 270 271 271 270 271 271 273 273 274 274 273 272 272 273 275 277 280
249 248 248 248 248 249 249 248 248 247 247 247 248 248 249 249 250 250 250 250 251 251 251 251 251 251 252 252 253 253 253 253 252 253 254 254 255 255 255 256 256 257 257 256 256 257 258 258 259 259 259 259 259 259 259 259 260 260 259 260 260 260 261 263 263 263 264 265 266 266 267 267 268 268 269 270 269 270 271 270 269 270 269 270 271 272 272
249 249 249 248 248 247 247 247 246 246 246 247 248 248 248 248 249 249 249 249 249 250 250 250 250 250 251 252 252 252 253 253 252 251 253 253 253 253 254 255 256 256 255 254 253 254 256 257 258 258 258 258 257 257 257 257 258 259 258 259 259 260 261 261 261 261 262 263 264 264 265 266 266 266 265 265 266 267 269 268 267 267 267 268 269 270 270
249 248 248 247 247 246 246 246 246 246 246 247 247 247 248 248 247 247 248 248 248 249 249 249 249 249 250 250 251 251 251 251 252 252 252 252 253 253 253 253 254 254 254 253 252 253 254 255 256 257 256 255 255 256 256 256 256 257 257 258 259 260 260 260 261 261 261 262 262 263 264 264 263 263 264 264 264 266 266 265 265 265 266 267 267 267 268
247 247 247 247 247 247 247 246 246 246 246 246 247 247 247 246 246 247 247 247 247 247 247 248 248 248 249 249 250 250 250 250 251 252 251 251 252 252 253 252 252 252 252 252 251 251 252 253 254 254 254 254 254 254 255 255 255 255 256 257 258 258 258 258 258 258 259 260 261 262 261 261 261 261 261 262 262 263 264 263 262 263 263 264 264 265 265
248 247 247 247 247 247 247 247 247 246 246 246 247 246 246 246 245 246 246 247 246 246 246 246 246 247 248 248 249 249 249 250 250 250 251 251 250 250 251 252 251 251 251 250 250 250 251 252 253 253 254 253 253 253 254 255 254 254 255 257 257 256 257 257 257 257 258 258 260 260 259 259 260 260 260 260 261 261 262 261 261 261 262 262 263 263 263
Wind_Speed
19 19 19 12 12 15 15 20 20 21 19 19 20 22 23 17 12 19 24 22 20 24 18 7 8 6 7 9 10 7 3 1 1 3 5 6 7 6 6 10 9 10 11 12 11 8 8 6 7 8 6 5 5 5 5 6 6 8 6 5 5 6 6 7 8 6 5 5 4 4 4 4 4 5 6 6 5 5 5 6 6 6 6 6 6 6 5
19 21 17 9 14 9 12 16 19 21 23 23 24 24 24 25 20 22 29 28 26 18 13 13 12 8 8 6 2 2 2 4 4 4 5 7 7 7 9 11 12 11 12 11 9 8 7 9 9 8 7 7 7 8 8 7 8 7 6 6 6 6 7 8 6 5 4 4 4 4 5 6 6 5 5 5 6 6 6 5 5 5 6 5 6 6 5
19 20 18 13 14 13 15 12 15 20 20 22 24 22 24 24 25 26 30 28 25 15 10 12 5 10 9 6 5 4 4 6 6 7 8 7 7 8 9 9 11 11 12 10 7 7 10 11 11 10 9 7 5 6 7 8 9 8 7 7 7 7 9 7 5 5 5 5 5 6 6 6 5 6 6 5 5 6 6 6 6 6 6 6 6 6 6
15 15 18 19 17 18 19 18 14 12 16 17 18 20 22 21 22 23 24 23 20 23 13 13 5 7 10 11 10 7 10 8 9 11 9 8 9 10 10 11 11 11 11 11 11 12 13 12 10 9 8 6 6 9 9 10 9 7 7 7 8 8 7 5 5 6 6 6 7 6 6 7 7 7 6 6 6 6 6 6 6 5 6 7 7 6 6
15 15 16 18 17 16 19 22 16 15 19 20 23 24 24 23 19 19 18 23 24 4 8 11 6 9 11 11 9 9 13 15 12 13 11 11 11 10 10 11 13 16 16 15 15 14 12 11 11 12 10 7 9 10 11 10 7 9 9 9 8 7 6 5 5 5 5 6 7 7 7 7 6 6 6 6 6 7 7 6 5 7 6 6 6 6 7
9 13 14 10 12 22 19 9 18 24 22 22 20 20 23 24 19 17 19 22 20 6 8 6 7 8 7 10 11 12 15 16 13 12 10 10 11 12 13 16 18 17 12 10 9 11 11 12 12 10 9 10 10 7 8 8 10 9 10 8 8 7 6 6 5 4 4 4 5 5 6 7 7 7 7 7 6 6 5 6 7 7 6 7 6 7 7
11 10 12 15 24 17 7 13 21 23 24 20 25 23 25 25 21 19 21 21 19 5 6 8 9 9 8 7 11 14 18 15 11 9 8 11 12 17 20 19 14 11 10 11 10 9 9 11 10 7 7 8 5 7 9 10 9 10 9 10 8 8 8 6 5 5 4 4 5 4 4 3 5 7 8 7 7 6 7 7 8 8 8 7 7 7 7
6 12 14 18 12 7 9 18 16 17 17 20 15 21 23 23 21 19 22 24 20 15 12 9 6 5 5 7 12 18 18 12 10 8 10 14 19 20 16 13 13 12 11 14 16 16 14 11 8 9 10 7 8 8 8 10 10 9 10 10 10 8 8 8 8 7 6 5 5 4 4 3 4 5 5 7 8 7 7 6 6 6 6 7 8 8 7
12 12 16 21 7 2 16 13 8 12 14 13 19 19 22 23 19 17 19 24 23 21 18 16 8 5 5 11 20 25 19 13 12 16 20 24 21 16 12 11 14 14 15 15 15 14 11 10 9 10 8 9 9 8 9 8 9 9 10 11 11 11 10 10 9 8 8 8 6 6 5 5 6 6 5 5 3 3 5 6 6 7 7 6 6 6 6
12 14 15 13 13 24 12 6 5 17 18 21 21 17 20 15 16 16 18 21 22 19 16 13 8 3 4 15 25 19 7 12 17 20 24 20 8 8 12 13 14 14 14 14 13 12 11 10 11 9 9 10 10 9 9 9 9 9 10 11 11 11 11 11 10 10 9 9 8 8 7 8 8 6 4 3 4 2 3 3 3 3 2 2 2 2 3
12 14 14 12 14 8 10 12 12 10 11 13 7 10 18 7 8 15 18 22 24 21 18 15 7 7 11 19 24 2 12 11 14 16 14 8 13 14 12 13 15 14 14 12 11 9 9 10 10 9 9 10 10 10 9 10 10 11 11 11 11 12 12 11 10 10 9 9 9 9 9 8 8 8 7 6 4 4 4 4 4 3 3 4 4 4 5
14 12 12 14 7 5 9 9 8 12 10 11 11 15 13 10 9 12 15 20 22 19 15 14 10 12 15 22 19 5 2 6 8 10 8 10 11 12 12 11 12 11 7 5 5 7 9 12 9 9 10 10 11 11 11 10 11 12 12 13 12 9 9 10 10 9 9 10 9 10 9 8 8 7 6 6 7 7 6 5 6 5 6 6 7 7 6
14 17 14 8 6 2 6 13 9 10 13 13 16 20 2 12 14 15 15 18 17 11 12 11 11 16 22 22 17 7 3 2 3 5 6 9 10 11 11 12 7 5 5 8 11 12 12 12 9 10 11 11 11 10 10 10 12 14 11 8 9 10 9 9 9 10 9 9 10 9 8 9 8 7 7 8 7 7 7 6 6 6 8 7 7 7 6
13 9 13 13 6 4 6 5 11 12 9 12 16 5 3 7 10 14 16 15 12 12 17 12 12 16 18 21 20 15 10 10 4 4 5 5 5 6 5 6 4 5 6 6 7 8 8 9 10 10 11 11 11 10 10 12 15 9 7 9 9 9 10 10 9 9 9 8 8 8 7 7 8 7 6 7 7 7 7 7 8 7 7 7 7 6 6
10 13 12 10 14 3 10 6 3 5 16 9 8 7 7 10 12 10 7 12 15 17 15 11 12 14 15 15 16 14 12 12 13 8 6 7 8 9 8 7 6 6 6 7 9 11 7 7 8 10 12 12 11 11 12 15 8 7 8 9 9 9 9 9 9 9 9 9 8 7 8 8 8 7 7 7 7 7 7 7 8 8 8 7 7 8 7
11 14 12 5 9 4 11 14 14 5 12 4 12 11 12 9 8 8 10 14 15 13 11 13 12 14 15 13 10 8 9 10 12 8 5 6 8 7 6 6 5 5 7 6 7 6 5 7 9 10 13 12 11 11 15 6 7 8 8 8 8 9 9 9 9 9 9 9 8 7 8 8 8 8 8 7 7 7 7 7 7 8 7 7 8 8 8
3 5 6 8 10 7 11 11 13 7 13 10 13 16 15 13 12 13 13 15 15 13 14 12 11 10 10 14 10 6 11 10 10 11 9 8 10 9 7 8 5 5 8 8 6 5 5 8 8 10 10 13 11 14 9 8 10 10 9 9 9 9 9 9 9 8 8 8 8 8 8 9 8 8 9 8 8 7 8 8 8 8 7 7 8 7 7
5 9 11 5 10 17 21 15 10 12 19 14 14 8 8 9 14 13 14 15 16 13 12 11 7 9 9 8 7 8 8 8 8 6 7 6 6 6 5 5 5 6 5 4 5 6 4 5 7 8 9 10 15 12 8 9 9 10 11 10 9 9 8 8 8 8 9 7 7 7 8 7 8 8 9 8 8 7 8 8 8 8 7 8 8 7 7
7 7 2 9 12 14 12 13 8 7 11 14 11 12 12 14 14 10 8 12 12 14 12 12 12 10 7 7 7 5 6 8 7 6 7 7 5 6 7 6 4 5 5 6 6 7 8 5 6 6 8 7 6 7 9 9 9 10 10 10 9 8 9 8 7 8 9 8 7 7 7 6 6 7 7 7 7 7 8 8 7 7 7 8 7 7 8
3 9 12 10 10 8 9 5 10 12 13 13 14 13 12 11 8 5 6 13 4 4 8 10 9 8 6 7 9 8 7 3 3 4 5 6 4 3 2 2 4 4 6 6 7 7 8 8 7 7 7 6 6 8 8 9 9 9 9 9 10 9 9 8 8 8 8 9 10 7 8 8 8 7 7 8 8 9 9 9 9 8 7 8 8 8 7
6 8 11 10 8 9 7 4 5 4 8 10 14 15 17 15 14 14 7 2 3 5 5 8 7 5 5 9 7 3 2 1 1 4 5 4 4 2 1 2 4 6 5 6 6 7 6 5 7 7 7 7 6 9 9 9 10 10 9 7 7 7 8 8 8 8 8 8 8 8 8 7 7 8 9 9 9 8 7 7 8 8 7 7 6 6 7
9 7 7 5 9 13 14 15 10 7 7 7 12 15 16 16 16 15 15 10 3 4 6 4 5 7 6 6 4 4 4 4 3 2 3 2 2 3 3 4 5 3 3 4 5 6 4 5 6 6 6 6 7 5 7 8 10 10 9 9 8 8 8 8 7 8 7 7 7 7 8 8 7 6 6 8 8 8 7 9 11 11 9 7 6 6 7
11 11 7 2 6 12 13 13 11 7 8 7 10 12 13 14 15 14 12 14 11 5 7 6 7 7 5 5 3 1 2 4 3 3 3 2 3 2 3 5 4 5 5 4 3 4 5 6 7 7 6 7 7 7 7 8 9 9 10 9 7 7 8 8 9 9 8 8 8 7 7 7 7 7 6 6 10 11 9 9 10 12 13 12 12 11 8
16 17 7 7 7 10 13 9 8 10 6 4 7 7 8 11 12 12 13 11 10 13 7 5 7 6 3 2 4 5 5 2 3 3 3 3 4 3 4 3 1 3 4 5 7 10 8 8 8 8 7 7 8 8 8 7 7 8 9 9 9 9 8 7 9 9 8 8 8 8 7 7 7 7 7 6 6 9 11 10 12 13 14 13 12 12 13
14 11 5 7 9 11 10 9 8 4 4 7 6 8 9 11 12 12 12 13 11 9 10 8 7 5 4 5 4 4 4 4 4 5 5 6 7 5 3 4 5 5 7 7 6 3 4 5 4 4 5 5 5 7 7 7 8 9 9 9 8 7 7 8 8 9 8 8 9 9 9 9 8 8 8 7 7 6 7 9 11 12 14 14 14 14 14
15 13 5 3 3 8 9 8 5 6 10 10 9 10 11 9 11 12 12 12 11 10 8 8 7 5 6 6 6 7 5 6 5 2 1 4 3 2 3 6 8 7 6 6 6 5 4 5 4 3 4 4 6 7 7 8 9 9 8 7 6 7 8 9 9 8 8 8 8 8 8 8 8 8 8 7 6 6 5 6 6 8 10 13 14 14 15
4 6 3 5 6 9 7 3 5 10 10 7 7 10 11 11 12 10 10 10 9 9 9 9 8 4 4 5 5 5 5 6 3 4 6 6 7 10 10 8 6 6 6 5 5 6 7 6 5 5 6 5 5 7 8 8 8 7 6 6 6 7 10 9 8 8 8 8 8 7 7 8 7 7 7 6 6 6 6 7 8 8 7 7 10 12 11
6 6 6 2 8 5 6 9 9 7 6 8 10 10 11 11 10 10 9 10 10 9 8 7 7 5 4 4 4 6 4 4 7 7 7 9 8 8 7 7 7 6 6 6 5 5 6 6 7 7 6 3 6 7 8 8 8 7 7 7 7 6 7 8 7 7 7 7 7 8 7 7 7 6 6 6 7 6 6 6 6 6 6 6 6 8 13
4 4 3 3 5 7 7 7 5 6 8 9 8 7 10 12 11 9 9 10 12 12 10 10 6 5 6 4 3 5 5 5 5 7 9 8 5 5 4 5 5 5 5 6 5 4 6 6 6 6 3 4 6 7 8 8 8 7 7 7 7 6 6 7 7 6 6 6 6 7 6 6 6 6 6 6 6 5 5 6 6 5 5 4 5 5 8
5 6 5 6 4 4 6 5 5 7 9 10 11 9 8 9 8 8 9 11 13 12 13 14 12 9 6 5 4 4 5 6 7 6 5 6 6 5 3 3 4 2 2 3 6 6 7 7 6 5 4 4 6 7 8 7 6 7 7 7 7 7 6 5 5 5 5 6 6 7 6 6 6 6 6 6 6 6 6 6 6 6 6 5 6 7 7
9 7 7 4 4 6 5 5 6 7 8 9 11 9 9 8 7 8 9 9 9 11 14 14 13 11 10 9 8 8 6 5 5 6 6 6 5 3 4 6 7 7 8 9 7 6 7 6 5 5 3 4 6 7 7 7 6 6 5 5 4 5 7 8 6 6 5 5 6 6 6 6 6 7 7 6 6 6 6 5 5 6 6 6 6 7 6
10 8 3 4 6 5 5 6 7 7 8 8 9 10 10 10 9 10 10 9 8 9 11 13 13 13 11 10 9 8 6 4 4 5 5 4 2 1 3 5 3 2 3 4 5 4 6 7 7 4 4 5 6 6 6 7 7 7 6 5 5 4 6 7 4 4 4 5 4 5 6 6 6 6 6 7 7 6 6 6 6 6 6 7 7 7 5
7 10 6 10 10 7 5 7 8 9 9 9 8 8 8 8 7 8 8 9 9 8 8 9 11 13 14 12 9 7 5 2 1 2 3 2 1 1 1 2 4 7 6 5 4 4 6 8 6 4 4 4 5 5 5 6 6 6 5 5 5 5 5 6 6 5 5 5 5 5 5 6 6 7 7 7 6 6 6 7 6 6 6 7 7 6 5
2 1 3 4 4 4 7 7 6 7 7 6 6 7 8 9 10 9 9 9 9 9 8 10 12 14 13 11 9 8 6 3 2 2 2 2 2 2 2 5 8 10 9 8 7 7 6 6 6 7 7 7 6 5 4 4 5 5 5 5 5 5 5 5 6 5 5 5 5 5 5 6 5 6 6 6 6 6 6 6 6 6 6 6 6 6 6
4 4 5 4 4 4 5 5 5 5 6 8 8 7 7 7 9 10 11 10 10 10 10 10 10 11 11 10 10 10 10 8 8 8 6 4 4 4 4 8 10 12 13 12 10 9 8 7 7 8 9 9 9 7 6 5 4 5 4 4 4 4 4 5 4 4 4 4 4 4 4 5 5 5 6 6 6 6 6 6 6 6 6 6 5 5 6
3 4 4 4 4 4 5 4 5 5 4 5 6 7 7 7 9 9 11 11 10 10 10 10 10 10 9 10 10 10 9 8 7 8 8 6 5 4 7 10 10 11 9 11 12 9 9 9 11 11 8 8 8 8 7 5 4 4 4 4 4 4 4 4 4 2 3 3 3 4 4 5 5 6 6 5 5 5 6 6 6 6 6 5 5 5 5
3 3 3 4 5 5 6 5 5 4 4 5 5 6 8 9 8 9 9 9 10 10 11 10 9 9 9 9 7 7 6 6 6 6 8 10 9 11 12 13 14 10 10 10 10 9 8 10 13 14 10 7 8 8 9 9 6 5 5 5 4 4 4 3 2 3 2 2 3 4 4 4 4 5 6 5 5 6 6 6 6 6 5 5 5 5 5
3 3 3 4 5 4 5 5 4 4 5 7 7 6 7 8 9 9 8 9 10 11 11 10 9 8 8 7 6 8 9 9 11 12 12 11 10 16 18 14 10 9 10 8 7 7 9 11 15 10 8 8 8 8 9 12 8 6 6 6 5 4 3 3 2 2 2 2 3 2 3 3 4 4 4 5 5 5 6 6 6 6 5 5 5 6 6
5 4 4 4 4 4 5 5 4 5 6 7 6 6 7 8 9 9 8 8 9 10 11 10 10 8 9 9 8 9 10 10 9 11 12 11 11 16 12 10 9 8 7 8 8 10 10 11 9 9 9 8 8 8 10 12 9 5 5 5 5 5 4 3 3 2 1 0 1 2 2 3 3 4 4 5 5 5 5 6 6 5 5 5 5 6 6
4 5 5 5 5 5 5 5 4 5 5 5 6 7 7 7 8 8 8 9 9 10 10 10 9 7 9 9 9 8 10 10 11 13 15 11 12 12 9 12 14 11 12 14 10 10 14 16 11 9 9 8 8 7 7 11 9 6 5 5 5 5 5 4 4 3 3 2 1 1 1 3 3 4 4 4 4 5 5 5 6 5 5 5 5 6 6
5 5 5 5 5 4 5 5 5 4 5 6 6 7 7 7 8 8 9 9 10 10 9 9 8 8 8 8 8 8 8 10 12 14 12 13 14 10 9 9 10 9 11 10 10 10 13 13 11 10 9 9 8 11 8 10 8 6 6 5 5 5 4 4 4 4 3 3 3 2 1 1 1 2 3 3 4 4 4 4 5 4 5 5 6 6 6
5 4 5 5 5 4 4 4 4 4 5 6 7 7 8 9 8 8 8 8 9 9 9 9 11 9 8 8 7 7 8 9 11 14 16 14 9 6 8 8 9 8 15 13 12 12 11 11 11 11 11 9 9 15 13 8 7 7 6 6 5 5 4 5 5 5 5 4 3 3 3 2 2 2 2 3 3 3 3 3 3 3 4 4 5 6 6
5 7 6 4 5 5 5 5 5 6 6 6 7 8 8 9 9 9 8 8 9 9 9 8 9 10 10 9 8 9 9 9 8 8 10 12 14 13 9 6 7 8 16 11 11 9 10 10 11 10 16 13 11 15 12 8 7 7 7 7 7 7 6 6 7 6 6 6 6 6 6 6 5 4 3 3 3 3 3 3 3 3 4 4 5 5 6
7 5 5 5 5 5 5 5 6 7 6 6 7 8 9 9 9 9 9 9 9 9 9 9 9 9 9 8 8 8 8 8 8 7 5 6 8 12 12 8 7 10 16 10 9 9 9 10 10 14 19 19 18 15 9 7 7 7 7 6 7 7 7 7 7 6 6 6 5 5 5 6 6 5 6 6 5 3 2 2 2 3 3 4 5 5 6
6 5 6 6 7 5 5 6 6 6 5 5 7 9 9 9 9 9 9 8 9 9 9 8 8 8 7 7 7 7 7 8 7 7 7 7 7 9 10 10 10 8 11 12 8 8 8 9 13 18 16 17 16 14 8 7 7 7 8 7 8 8 7 7 7 6 6 6 6 5 6 5 5 6 6 8 9 8 7 5 4 4 4 4 5 5 6
7 6 8 9 9 8 7 6 6 6 7 6 7 9 10 10 9 8 8 10 8 8 8 8 9 9 9 8 7 7 6 7 9 9 8 7 7 6 8 10 9 10 13 12 7 8 8 15 17 16 16 16 14 8 7 7 8 8 9 9 8 8 7 7 7 7 6 6 6 6 6 5 6 7 7 6 7 8 8 11 10 9 8 7 6 5 5
5 7 10 10 9 9 9 7 7 7 8 9 8 7 8 10 9 7 8 11 10 9 8 8 8 9 9 9 7 6 5 5 6 8 8 7 8 8 9 13 13 15 12 9 9 9 11 11 14 17 17 16 13 8 8 7 8 8 8 7 7 7 7 6 6 7 7 7 8 8 8 9 8 7 8 8 8 8 9 9 9 9 9 10 11 12 11
7 8 9 10 10 10 10 10 8 8 9 9 7 5 6 8 8 8 8 8 9 8 8 8 8 9 10 10 9 8 7 5 4 7 8 7 7 7 7 8 10 13 13 10 12 12 19 19 18 18 19 17 11 9 10 9 8 8 8 7 7 6 6 7 8 9 8 8 9 8 8 8 8 8 8 9 9 9 8 9 8 8 8 8 8 8 9
8 8 8 8 9 10 9 7 8 8 7 7 7 5 7 7 7 7 7 8 8 6 7 8 10 9 9 9 10 8 8 8 8 6 7 7 7 7 8 9 13 14 10 8 9 8 14 18 18 18 18 15 10 10 10 10 10 9 9 8 7 7 7 8 8 7 7 8 8 8 8 8 9 10 9 9 9 9 9 8 8 8 9 9 8 8 8
5 5 5 5 6 7 6 5 6 6 5 5 5 6 6 6 5 5 6 6 6 6 5 5 6 7 6 6 7 8 8 8 8 7 7 8 9 8 8 8 9 12 12 8 8 8 10 15 15 16 13 10 10 10 10 10 9 9 9 9 8 7 10 10 10 11 9 9 8 8 9 9 9 10 10 9 9 9 8 8 8 10 15 10 8 8 8
4 4 4 5 5 5 7 6 6 5 5 6 6 6 6 5 4 5 5 6 5 5 5 4 5 6 6 6 6 7 7 7 8 9 7 7 8 9 10 8 9 9 9 8 8 7 7 8 9 10 10 10 9 9 9 9 8 8 8 7 8 9 8 10 9 8 9 9 8 8 9 9 9 9 8 8 9 9 9 9 10 9 9 8 8 8 8
5 5 4 4 3 3 4 5 6 6 6 5 5 5 5 4 4 4 4 7 6 5 5 5 5 7 6 5 7 6 7 8 7 7 8 8 8 6 8 9 7 7 7 7 7 7 7 8 9 12 11 9 8 8 9 11 8 7 7 8 8 8 8 8 8 8 8 9 8 8 9 8 8 8 8 8 8 9 9 8 8 9 9 9 9 10 9
Wind_Direction
229 227 230 177 182 183 192 205 201 199 196 194 198 215 229 225 219 238 246 236 237 246 249 222 225 220 230 236 243 233 223 251 198 191 202 207 218 220 208 223 222 220 219 217 219 216 217 213 211 213 207 201 195 208 220 218 209 218 206 198 210 200 197 209 218 211 198 190 184 182 184 188 196 195 188 186 186 184 182 182 180 180 178 175 167 176 170
227 234 235 181 193 205 203 203 200 197 192 196 200 212 222 224 227 234 248 251 242 243 254 239 230 220 230 241 238 119 173 232 219 212 222 215 220 211 215 220 221 220 224 223 217 209 209 205 210 207 209 203 200 201 205 204 205 209 168 201 204 208 211 213 203 195 187 177 177 174 175 186 199 201 197 190 182 185 190 186 180 177 178 183 179 176 174
227 228 230 207 212 208 217 212 204 197 195 195 199 209 223 227 234 237 246 253 258 256 249 256 216 210 227 243 229 219 232 241 226 215 221 222 225 224 224 227 225 222 222 220 214 209 212 206 205 202 205 204 189 203 206 200 204 194 176 190 201 203 218 217 197 173 170 179 171 181 188 185 186 189 197 191 189 191 192 188 182 180 177 178 186 183 182
227 219 222 221 220 227 228 219 201 196 189 196 201 213 218 216 222 233 247 258 259 257 234 252 207 202 218 233 241 252 254 242 239 237 224 218 224 227 225 224 227 227 222 213 207 209 212 207 202 201 207 201 178 210 197 198 198 176 179 188 195 205 213 210 199 186 183 171 175 183 177 188 186 187 182 184 191 193 191 191 190 176 184 186 181 181 181
226 210 214 219 218 232 236 223 199 186 200 200 204 214 217 218 213 224 226 238 242 230 129 206 219 208 215 224 231 247 257 250 237 236 227 218 221 224 224 224 225 224 217 209 206 210 208 203 201 209 197 171 201 205 190 196 162 172 182 185 190 197 202 195 203 199 188 187 186 177 180 177 182 178 182 187 190 189 195 187 174 187 195 185 189 184 185
213 210 225 205 212 222 219 169 202 196 202 201 207 215 221 226 208 223 223 236 244 195 224 175 205 214 213 213 226 222 237 248 242 236 228 221 220 224 224 223 223 225 218 214 217 215 209 209 208 204 181 191 207 189 174 157 168 174 173 181 181 187 183 194 201 201 199 208 222 208 171 169 171 176 179 193 193 191 181 178 188 191 187 191 188 189 193
220 214 224 229 224 221 117 178 205 203 209 201 209 218 222 228 222 230 248 251 255 209 219 189 205 209 223 230 233 240 241 239 244 238 215 219 220 222 224 227 228 226 213 209 213 219 221 219 215 185 191 204 165 152 161 166 174 168 175 167 177 177 180 185 186 194 202 215 232 253 257 200 176 178 180 180 185 187 184 185 186 190 186 189 193 189 189
227 218 217 235 253 167 187 203 201 201 200 212 212 235 237 233 224 217 236 248 253 247 242 229 216 219 252 279 261 252 249 245 240 232 234 229 225 229 228 226 227 218 211 207 207 215 217 213 199 185 197 178 167 181 167 166 168 172 165 166 172 172 176 179 184 188 188 202 216 233 240 265 271 245 206 188 183 180 180 183 184 184 190 187 192 192 188
230 221 228 237 270 283 197 188 196 151 187 190 204 227 237 230 228 212 225 239 242 242 241 245 249 271 315 285 275 255 245 243 227 224 239 239 239 238 232 221 226 217 215 212 212 212 211 205 192 193 188 168 173 160 166 167 168 168 164 167 174 178 177 176 180 181 184 185 198 202 203 210 227 237 245 253 240 180 189 190 187 192 193 190 186 188 195
218 235 237 245 220 227 200 196 202 188 186 191 199 209 242 230 223 215 221 238 245 241 242 237 216 173 270 271 263 268 199 210 219 227 235 244 251 235 227 226 230 228 224 218 216 204 205 202 197 194 177 170 165 169 170 165 168 171 172 177 176 177 178 176 176 176 179 180 186 192 193 203 205 211 215 222 225 201 221 224 232 230 218 247 243 223 224
212 222 227 230 226 243 184 194 188 190 190 192 176 206 239 228 178 198 208 229 238 238 235 234 156 140 226 249 253 95 152 199 215 228 237 233 233 235 229 226 230 229 230 219 210 200 197 202 204 187 165 159 162 175 173 174 176 173 187 179 175 180 179 172 171 172 175 178 182 184 191 194 190 191 195 196 189 185 203 199 211 195 200 213 220 218 218
225 227 226 232 217 231 174 190 189 185 155 138 136 217 230 218 207 194 204 216 229 234 230 228 193 182 231 242 252 161 181 214 229 212 218 226 236 240 238 239 235 232 223 200 207 201 200 211 192 163 157 163 177 177 181 173 178 190 192 189 182 170 161 164 166 168 173 176 180 182 183 181 182 183 178 179 187 188 194 191 192 192 197 202 209 213 207
232 234 241 251 252 276 191 181 180 157 153 146 195 214 192 172 204 199 205 213 223 219 229 212 199 209 222 241 256 233 308 344 260 236 227 221 222 229 238 243 240 223 216 202 207 204 208 203 176 166 163 168 180 183 170 177 194 202 192 163 156 162 157 159 165 170 174 176 177 181 176 175 172 173 178 181 181 186 188 189 189 193 196 198 204 208 201
226 229 243 245 263 222 161 217 165 145 122 209 219 157 177 158 213 203 203 202 212 221 233 220 209 226 230 242 255 270 273 260 254 247 253 270 283 263 248 252 227 213 215 217 223 227 218 194 171 166 166 171 183 172 172 193 206 188 145 156 153 153 159 163 166 169 174 177 175 173 172 165 168 178 180 177 179 181 182 183 189 191 190 192 196 202 203
236 231 236 240 240 236 156 133 45 213 202 219 170 195 199 197 213 192 178 185 212 220 236 227 216 232 242 241 246 256 270 277 270 250 239 235 239 243 244 252 233 201 215 217 220 225 208 179 166 172 169 177 177 174 181 205 184 140 151 148 154 155 156 162 169 171 174 173 172 169 171 171 169 175 176 176 176 176 177 183 187 190 192 192 196 202 202
236 225 228 199 344 307 177 173 215 183 225 148 170 159 213 222 198 180 183 204 210 214 215 228 223 227 237 254 254 253 262 263 265 256 240 252 255 255 244 235 235 194 223 224 226 220 184 174 173 171 173 176 174 173 199 177 132 138 140 149 147 153 159 166 166 172 174 173 171 169 169 168 169 172 178 179 179 183 183 187 191 196 196 192 195 199 198
11 329 341 343 341 330 323 302 291 276 222 203 178 183 199 192 212 201 195 202 212 209 214 221 218 227 225 233 239 214 241 249 259 266 252 235 243 246 245 245 227 199 215 225 214 196 189 178 177 175 178 173 169 187 188 137 151 148 148 148 154 158 164 168 172 170 169 172 172 171 171 168 169 175 176 177 182 185 185 190 192 194 192 188 194 194 195
219 246 233 260 342 342 333 327 336 0 359 338 336 287 243 212 201 189 200 207 207 205 205 206 219 207 218 214 238 227 237 239 252 261 271 263 252 252 251 253 215 208 207 198 177 186 189 187 178 177 180 168 175 192 147 149 148 150 147 152 159 165 164 167 169 166 168 173 173 173 171 173 177 179 178 180 182 182 187 190 192 192 189 189 193 194 198
14 296 223 330 330 320 313 317 339 28 7 351 347 352 337 330 324 304 246 206 194 196 187 195 207 215 212 210 235 243 246 238 240 239 246 254 240 233 233 228 167 168 168 170 183 177 183 189 179 182 177 188 170 134 153 151 152 150 155 157 157 155 165 163 164 169 171 173 173 175 175 174 179 177 181 186 187 189 190 192 193 193 193 190 194 196 196
154 277 296 309 303 268 283 295 351 354 3 349 342 333 329 329 315 322 327 335 324 141 178 200 202 223 190 186 222 209 206 211 237 257 254 257 269 255 237 205 173 159 166 178 182 183 188 183 178 178 179 168 154 150 150 157 149 150 153 163 160 165 163 165 170 176 176 175 173 176 181 178 181 185 186 186 191 196 194 193 192 196 194 196 196 193 192
269 269 289 290 287 293 276 244 350 12 4 347 334 331 326 325 328 323 319 150 303 288 239 189 191 202 217 208 204 186 203 171 236 245 245 237 221 185 120 192 179 178 176 181 187 189 190 171 173 175 179 170 168 160 162 155 157 155 159 156 151 155 163 164 175 177 178 175 180 177 181 189 196 192 184 189 196 204 209 198 194 192 196 203 196 192 189
277 264 288 8 337 309 311 315 326 343 358 347 323 323 323 324 321 321 319 304 192 208 287 272 210 200 223 208 181 185 206 198 186 203 247 252 228 206 189 160 181 166 163 171 177 188 188 168 181 183 179 180 184 175 161 164 160 158 154 153 157 168 169 173 169 171 176 180 178 180 182 188 188 205 217 205 196 195 203 206 208 200 188 199 190 190 200
273 277 260 278 270 285 280 289 306 336 333 331 321 309 309 311 315 315 315 307 297 253 234 215 224 231 207 201 170 215 258 229 174 189 182 199 234 224 163 144 182 192 190 174 170 201 199 176 184 185 184 184 182 187 179 175 170 158 153 157 169 167 171 181 176 174 175 177 182 181 185 183 187 190 195 215 216 211 204 195 201 210 205 198 184 188 194
263 266 270 248 246 262 276 283 303 313 328 327 308 305 308 310 312 317 315 303 286 288 271 226 228 222 166 144 167 202 226 204 164 200 210 206 188 169 165 196 189 197 190 181 192 204 193 186 185 184 185 186 185 181 179 175 172 162 166 165 176 182 177 171 169 177 176 177 176 181 185 184 184 184 189 195 209 219 219 207 203 207 210 210 203 196 198
256 256 232 229 233 249 265 278 289 316 38 16 333 309 304 308 311 316 311 307 304 281 274 258 241 229 189 175 189 230 244 252 233 222 200 170 166 161 174 192 207 189 206 215 229 211 158 189 192 191 193 193 172 172 175 171 172 173 179 180 175 165 166 166 172 174 175 177 181 181 181 183 187 187 188 191 194 195 211 219 213 210 213 214 211 205 202
246 263 270 289 276 270 275 294 289 27 347 344 327 315 315 312 308 309 304 300 297 297 281 270 262 232 207 206 213 229 240 244 226 202 214 258 241 192 185 203 217 208 203 197 205 206 192 196 202 197 213 202 179 175 169 170 178 185 183 183 168 161 166 171 170 178 181 181 180 185 182 183 185 187 192 192 192 186 181 191 218 227 222 219 215 214 214
285 16 18 278 264 264 259 296 327 341 322 322 331 326 322 319 308 295 289 290 286 283 274 259 246 223 197 225 230 235 224 250 260 232 227 211 205 207 212 215 218 223 218 201 193 186 180 180 182 193 219 202 174 169 171 171 171 173 173 169 164 166 167 168 176 177 177 176 178 175 178 182 184 187 189 186 185 187 191 192 205 210 217 216 217 215 215
66 28 26 231 263 289 321 332 322 319 348 357 341 332 336 331 328 318 314 318 326 320 304 294 289 280 248 239 210 256 271 268 252 260 261 250 235 222 210 199 201 205 207 207 208 174 162 164 176 191 221 175 158 162 162 160 163 167 165 165 165 170 171 172 169 169 172 177 176 177 178 185 182 184 177 180 188 196 196 201 205 213 217 208 203 207 211
32 27 359 309 270 273 281 289 309 5 353 343 340 341 354 350 337 342 344 350 341 335 334 329 312 274 259 249 180 217 236 244 247 253 253 257 258 248 219 181 175 179 188 202 201 172 159 163 174 190 186 149 151 153 155 156 162 163 165 167 168 173 179 180 174 172 173 170 176 176 176 172 171 174 178 182 184 187 195 203 209 212 215 202 192 204 207
348 343 327 313 313 332 329 351 23 9 355 345 344 350 3 356 348 346 344 348 349 342 339 332 329 327 325 315 300 277 264 257 254 262 268 261 249 230 187 126 102 107 147 187 193 178 167 176 170 154 166 161 151 153 153 156 159 165 170 174 176 177 177 174 168 165 164 174 174 172 172 169 170 173 177 182 187 192 196 203 204 210 216 211 203 208 204
313 311 293 289 15 13 5 10 23 15 358 352 345 340 357 5 352 337 341 345 348 341 336 332 329 335 346 339 330 321 297 276 271 271 261 251 240 207 162 153 160 184 196 202 182 174 167 145 130 138 162 144 150 147 148 148 151 153 153 161 168 171 167 167 173 171 176 167 170 171 176 170 171 172 184 184 191 192 197 196 203 211 216 221 221 221 210
317 317 331 57 25 21 32 31 10 7 358 349 349 358 357 354 345 334 329 338 338 333 327 328 330 327 317 310 303 301 298 287 280 266 262 276 292 230 185 188 188 141 117 120 136 144 133 126 121 143 153 140 141 146 145 143 145 151 164 161 157 158 165 167 162 171 161 176 173 178 176 172 178 181 184 193 193 192 190 195 205 207 213 220 230 229 206
355 331 334 355 349 357 32 28 1 349 353 348 344 340 341 333 328 321 321 324 325 330 331 317 317 316 311 303 296 297 294 285 269 269 268 295 7 40 77 103 97 102 99 103 112 114 114 111 115 104 97 114 121 134 139 143 144 147 150 155 151 150 156 170 167 162 171 173 181 184 179 184 186 185 197 192 190 189 194 202 203 206 211 222 229 231 211
46 254 300 340 327 329 338 345 357 334 336 332 332 336 343 340 334 329 327 330 322 327 333 324 312 312 316 329 351 4 12 37 16 332 5 41 65 70 86 100 97 90 84 76 71 62 63 85 100 97 89 82 80 80 92 104 114 114 135 134 140 144 149 156 163 164 173 188 185 178 180 184 187 192 194 193 192 193 200 205 206 207 211 219 224 221 220
351 321 318 304 332 345 345 335 332 339 336 335 338 345 347 344 340 332 331 335 331 327 319 315 310 316 331 346 5 14 24 26 12 11 15 31 75 91 109 90 82 73 63 51 44 44 38 53 72 81 77 73 69 64 63 67 89 111 118 126 126 131 125 135 140 166 180 196 169 170 183 191 199 196 194 193 197 197 200 205 208 207 211 219 220 207 212
352 335 339 334 338 342 347 331 333 337 349 333 334 336 338 340 339 334 335 331 326 322 323 322 324 328 348 5 5 7 16 4 5 8 352 15 29 59 63 61 63 61 55 50 22 13 33 48 50 60 65 62 61 51 50 59 86 95 120 113 117 114 124 133 146 159 173 169 178 193 193 200 196 194 198 198 201 199 204 206 207 207 211 216 210 199 203
346 350 332 342 327 342 332 338 329 357 360 347 341 350 343 343 336 325 325 329 334 329 325 322 344 355 353 356 354 347 1 12 8 16 28 37 38 49 54 55 45 34 42 47 6 346 20 43 43 45 47 45 44 40 33 38 66 73 96 90 97 102 109 116 127 156 180 180 186 189 192 191 195 202 197 196 202 207 208 211 210 207 207 208 203 203 199
337 355 349 336 331 328 328 329 340 27 11 7 0 2 350 345 332 333 334 341 342 339 333 333 344 348 346 343 356 7 4 13 41 52 49 51 51 61 49 41 24 17 33 25 343 6 25 22 31 36 36 34 27 22 23 28 41 59 71 72 87 90 96 106 117 144 157 178 184 186 193 199 204 208 206 204 209 208 210 213 214 213 210 205 202 203 203
358 357 356 342 344 337 346 339 4 36 25 11 354 356 352 356 338 343 345 352 348 348 339 339 348 358 0 360 1 10 9 7 31 62 60 56 56 66 63 44 27 13 8 357 15 31 24 24 20 30 31 26 16 13 13 16 18 38 55 78 78 86 84 97 99 111 94 141 148 183 203 212 215 218 214 209 207 210 212 215 215 215 214 213 209 209 206
354 356 344 343 346 343 359 351 17 38 27 14 4 357 350 355 353 356 348 356 355 357 346 343 355 14 7 0 1 6 9 19 36 53 59 56 59 65 62 41 20 2 7 25 29 26 26 26 27 26 22 14 15 6 6 5 2 13 29 48 61 64 69 69 74 76 81 81 100 187 206 220 222 221 224 222 215 212 213 214 218 222 221 220 218 217 213
353 353 343 350 349 358 2 10 5 33 33 14 6 359 357 0 7 8 2 359 351 352 353 354 0 8 8 357 357 354 13 30 44 53 54 65 56 42 48 42 5 352 10 27 28 24 26 27 27 24 16 12 12 11 5 3 3 1 10 20 37 43 54 52 59 55 54 47 48 48 23 294 266 245 242 237 231 230 223 224 219 221 218 225 224 223 224
343 356 358 6 357 3 9 12 6 21 31 24 11 5 359 10 13 5 4 5 355 356 357 359 14 17 8 1 1 6 9 30 47 49 51 55 49 41 51 41 7 2 23 28 24 25 23 23 23 22 16 10 12 14 18 14 7 3 3 4 11 15 26 35 42 36 31 28 24 16 360 336 320 299 287 261 263 249 246 242 238 234 233 231 230 230 229
357 11 8 8 6 8 27 19 17 16 28 26 17 6 7 15 19 8 12 13 12 2 3 1 5 13 15 10 15 26 19 4 19 51 68 63 54 47 47 28 10 17 26 31 27 24 24 21 20 19 19 19 19 18 23 19 15 16 14 12 14 18 20 27 30 27 26 26 22 18 12 6 359 346 328 306 286 273 268 264 260 260 251 249 243 242 237
5 14 20 18 17 21 30 24 18 13 18 25 20 12 11 21 21 15 10 16 16 12 9 4 8 13 14 14 29 40 26 12 7 355 30 66 62 46 33 27 23 24 29 32 31 25 23 22 21 21 21 23 23 25 26 22 23 23 18 18 21 25 28 28 23 20 20 18 18 12 7 4 0 355 356 352 341 329 318 304 291 281 268 266 264 258 250
20 25 16 25 22 34 34 30 22 14 1 19 21 26 18 13 20 17 14 11 18 18 12 12 11 10 9 13 26 36 50 37 22 12 23 26 39 35 20 18 28 29 29 31 34 28 23 25 28 31 31 27 26 27 24 22 23 28 28 28 29 31 29 27 22 17 15 13 9 8 6 2 0 5 12 6 1 357 355 351 346 333 315 294 279 267 256
32 29 20 29 32 31 29 31 26 20 15 16 26 26 17 9 13 13 15 12 17 17 18 15 19 18 17 14 17 17 43 56 43 32 31 33 40 25 15 23 30 32 27 27 29 23 19 23 30 34 35 34 30 27 24 26 30 32 33 32 28 26 23 18 17 16 13 9 9 9 1 351 6 19 14 7 1 2 5 8 7 3 353 335 308 284 271
46 41 34 30 32 32 29 29 33 35 30 30 28 17 2 358 8 10 5 4 14 22 21 13 12 13 19 21 22 16 8 36 63 45 28 19 30 27 22 26 31 31 31 26 22 19 15 15 22 26 29 30 33 35 32 32 36 36 33 32 26 19 16 9 9 13 10 11 13 9 6 16 19 10 3 7 9 9 5 17 23 16 7 0 359 348 337
56 51 41 38 32 29 34 31 34 36 33 27 12 358 354 346 2 10 9 5 5 22 27 22 13 6 10 19 21 26 17 359 46 44 29 16 20 25 19 25 29 32 31 22 16 13 15 17 20 23 24 24 27 31 31 30 31 34 30 28 23 15 8 12 16 15 11 14 13 12 16 17 7 5 6 15 12 4 10 22 12 10 2 357 351 347 346
55 59 56 46 39 31 31 31 33 36 26 3 1 358 356 346 4 14 12 2 356 16 25 23 15 6 1 16 25 21 19 20 39 42 20 17 19 25 22 27 30 32 30 27 17 4 12 14 19 24 25 27 27 25 24 20 18 18 18 16 12 10 19 25 21 13 9 12 10 12 10 12 17 20 14 10 0 356 4 16 11 9 357 346 345 347 348
53 57 50 43 39 34 24 25 37 31 7 356 358 1 351 349 13 16 8 1 355 13 22 29 21 7 356 4 21 21 18 20 26 29 27 25 26 27 28 27 30 30 32 27 19 9 4 11 19 25 28 25 25 24 25 20 13 10 6 1 3 15 22 20 18 15 12 12 9 6 19 22 17 14 11 8 358 354 7 9 1 352 349 347 347 346 349
62 62 57 53 52 54 42 43 36 27 12 3 360 360 1 6 14 12 1 7 348 7 16 18 31 14 357 5 18 19 20 15 22 25 27 26 28 27 31 31 29 29 28 26 17 4 1 8 15 21 25 27 25 22 23 20 14 2 356 352 11 17 12 13 9 7 6 8 360 14 25 15 12 11 10 8 360 356 1 2 357 348 344 342 344 342 342
77 77 67 63 64 57 56 45 38 31 21 2 360 1 3 5 352 350 353 13 9 10 9 8 17 17 4 359 18 16 18 19 21 22 27 28 27 23 23 28 28 26 27 24 14 4 9 18 20 23 25 26 25 21 19 17 11 358 353 6 19 15 10 9 7 7 3 359 0 19 22 12 8 8 6 5 358 356 355 357 350 344 339 337 337 335 331